Tracking 18942 objects as of 18-Jan-2018
HD Live streaming from Space Station
objects crossing your sky now

FENGYUN 1C DEB

Track FENGYUN 1C DEB now!
10-day predictions


NORAD ID: 30275
Int'l Code: 1999-025YL
Perigee: 786.4 km
Apogee: 863.4 km
Inclination: 98.8 °
Period: 101.2 minutes
Semi major axis: 7195 km
RCS: 0.0208 m2 (small)
Launch date: May 10, 1999
Source: People's Republic of China (PRC)
Launch site: Taiyaun Space Center, China (TSC)

Note: This is SATELLITE DEBRIS
aabbcc
Your satellite tracking list
Your tracking list is empty




NASA's NSSDC Master Catalog

Two Line Element Set (TLE):
1 30275U 99025YL  18016.65576431 +.00000749 +00000-0 +35264-3 0  9998
2 30275 098.8415 067.3580 0053493 325.6226 159.3789 14.22238321568866
Source of the keplerian elements: AFSPC